When you browse on this site, cookies collect data to enhance your experience and personalize the content and advertising you see.
Visit our Privacy Policy to learn more. By continuing to use the site, you agree to this use of cookies and data.
  • în România
  • Lista ţărilor
  • Pe 7 zile
  • Temperatura apei
  • Hartă satelitară
  • Meteo pe hartă
  • Widget-uri
  • user-avatar
    Intrare

    Meteo pe oră la Saumur

    Astăzi, 25 Iunie, Marţi

    Timp Temperatura Precipitaţii Vânt Presiune Umiditate
    00:00 +19°C° 0 mm 2 m/s 758 mmHg 97%
    01:00 +19°C° 0 mm 2 m/s 758 mmHg 97%
    02:00 +19°C° 0 mm 1 m/s 758 mmHg 97%
    03:00 +19°C° 0 mm 1 m/s 758 mmHg 98%
    04:00 +19°C° 0 mm 1 m/s 758 mmHg 96%
    05:00 +20°C° 0 mm 1 m/s 759 mmHg 95%
    06:00 +18°C° 0 mm 0 m/s 759 mmHg 94%
    07:00 +22°C° 0 mm 1 m/s 759 mmHg 89%
    08:00 +24°C° 0 mm 1 m/s 759 mmHg 85%
    09:00 +25°C° 0 mm 1 m/s 760 mmHg 80%
    10:00 +27°C° 0 mm 1 m/s 760 mmHg 75%
    11:00 +28°C° 0 mm 1 m/s 760 mmHg 69%
    12:00 +29°C° 0 mm 1 m/s 760 mmHg 64%
    13:00 +30°C° 0 mm 1 m/s 760 mmHg 63%
    14:00 +30°C° 0 mm 1 m/s 761 mmHg 62%
    15:00 +28°C° 0 mm 0 m/s 761 mmHg 61%
    16:00 +30°C° 0 mm 1 m/s 761 mmHg 63%
    17:00 +30°C° 0 mm 1 m/s 761 mmHg 66%
    18:00 +30°C° 0 mm 2 m/s 761 mmHg 68%
    19:00 +28°C° 0 mm 2 m/s 761 mmHg 74%
    20:00 +26°C° 0 mm 3 m/s 762 mmHg 81%
    21:00 +24°C° 0 mm 3 m/s 762 mmHg 87%
    22:00 +24°C° 0 mm 3 m/s 762 mmHg 89%
    23:00 +22°C° 0 mm 3 m/s 762 mmHg 91%

    Mâine, 26 Iunie, Miercuri

    Timp Temperatura Precipitaţii Vânt Presiune Umiditate
    00:00 +22°C° 0 mm 3 m/s 762 mmHg 93%
    01:00 +22°C° 0 mm 3 m/s 762 mmHg 94%
    02:00 +21°C° 0 mm 3 m/s 762 mmHg 95%
    03:00 +21°C° 0 mm 3 m/s 762 mmHg 96%
    04:00 +22°C° 0 mm 4 m/s 761 mmHg 93%
    05:00 +23°C° 0 mm 4 m/s 761 mmHg 90%
    06:00 +23°C° 0 mm 5 m/s 761 mmHg 87%
    07:00 +26°C° 0 mm 5 m/s 761 mmHg 82%
    08:00 +27°C° 0 mm 5 m/s 761 mmHg 76%
    09:00 +29°C° 0 mm 6 m/s 761 mmHg 71%
    10:00 +30°C° 0 mm 5 m/s 761 mmHg 67%
    11:00 +32°C° 0 mm 5 m/s 761 mmHg 63%
    12:00 +34°C° 0 mm 4 m/s 761 mmHg 60%
    13:00 +34°C° 0 mm 5 m/s 761 mmHg 59%
    14:00 +35°C° 0 mm 5 m/s 760 mmHg 58%
    15:00 +35°C° 0 mm 5 m/s 760 mmHg 57%
    16:00 +35°C° 0 mm 4 m/s 760 mmHg 61%
    17:00 +34°C° 0 mm 4 m/s 760 mmHg 65%
    18:00 +34°C° 0 mm 3 m/s 760 mmHg 68%
    19:00 +31°C° 0 mm 3 m/s 760 mmHg 72%
    20:00 +29°C° 0 mm 3 m/s 760 mmHg 76%
    21:00 +27°C° 0 mm 3 m/s 761 mmHg 80%
    22:00 +27°C° 0 mm 3 m/s 761 mmHg 85%
    23:00 +26°C° 0 mm 3 m/s 761 mmHg 89%

    Poimâine, 27 Iunie, Joi

    Timp Temperatura Precipitaţii Vânt Presiune Umiditate
    00:00 +26°C° 0 mm 4 m/s 761 mmHg 94%
    01:00 +26°C° 0 mm 4 m/s 761 mmHg 95%
    02:00 +25°C° 0 mm 4 m/s 761 mmHg 95%
    03:00 +25°C° 0 mm 4 m/s 761 mmHg 96%
    04:00 +25°C° 0 mm 4 m/s 761 mmHg 95%
    05:00 +25°C° 0 mm 4 m/s 761 mmHg 93%
    06:00 +25°C° 0 mm 4 m/s 761 mmHg 92%
    07:00 +27°C° 0 mm 4 m/s 762 mmHg 86%
    08:00 +29°C° 0 mm 4 m/s 762 mmHg 80%
    09:00 +30°C° 0 mm 4 m/s 762 mmHg 74%
    10:00 +33°C° 0 mm 4 m/s 762 mmHg 68%
    11:00 +34°C° 0 mm 4 m/s 762 mmHg 62%
    12:00 +36°C° 0 mm 4 m/s 761 mmHg 57%
    13:00 +36°C° 0 mm 4 m/s 761 mmHg 56%
    14:00 +37°C° 0 mm 4 m/s 761 mmHg 54%
    15:00 +37°C° 0 mm 4 m/s 761 mmHg 53%
    16:00 +37°C° 0 mm 3 m/s 760 mmHg 58%
    17:00 +36°C° 0 mm 3 m/s 760 mmHg 62%
    18:00 +35°C° 0 mm 3 m/s 760 mmHg 66%
    19:00 +34°C° 0 mm 4 m/s 760 mmHg 73%
    20:00 +32°C° 0 mm 4 m/s 760 mmHg 80%
    21:00 +29°C° 0 mm 5 m/s 761 mmHg 87%
    22:00 +29°C° 0 mm 5 m/s 760 mmHg 88%
    23:00 +28°C° 0 mm 5 m/s 760 mmHg 90%

    28 Iunie, Vineri

    Timp Temperatura Precipitaţii Vânt Presiune Umiditate
    00:00 +27°C° 0 mm 5 m/s 760 mmHg 91%
    01:00 +26°C° 0 mm 5 m/s 760 mmHg 90%
    02:00 +25°C° 0 mm 5 m/s 760 mmHg 89%
    03:00 +25°C° 0 mm 5 m/s 760 mmHg 89%
    04:00 +23°C° 0 mm 5 m/s 760 mmHg 86%
    05:00 +23°C° 0 mm 5 m/s 760 mmHg 83%
    06:00 +23°C° 0 mm 5 m/s 760 mmHg 81%
    07:00 +26°C° 0 mm 5 m/s 760 mmHg 77%
    08:00 +27°C° 0 mm 5 m/s 760 mmHg 74%
    09:00 +29°C° 0 mm 5 m/s 760 mmHg 70%
    10:00 +30°C° 0 mm 5 m/s 760 mmHg 67%
    11:00 +33°C° 0 mm 4 m/s 760 mmHg 64%
    12:00 +34°C° 0 mm 4 m/s 760 mmHg 61%
    13:00 +35°C° 0 mm 4 m/s 759 mmHg 59%
    14:00 +35°C° 0 mm 4 m/s 759 mmHg 58%
    15:00 +36°C° 0 mm 4 m/s 759 mmHg 56%
    16:00 +35°C° 0 mm 4 m/s 759 mmHg 58%
    17:00 +34°C° 0 mm 4 m/s 759 mmHg 60%
    18:00 +33°C° 0 mm 3 m/s 759 mmHg 62%
    19:00 +30°C° 0 mm 3 m/s 759 mmHg 66%
    20:00 +28°C° 0 mm 3 m/s 759 mmHg 71%
    21:00 +26°C° 0 mm 3 m/s 759 mmHg 75%
    22:00 +25°C° 0 mm 3 m/s 759 mmHg 79%
    23:00 +24°C° 0 mm 3 m/s 759 mmHg 82%

    29 Iunie, Sâmbătă

    Timp Temperatura Precipitaţii Vânt Presiune Umiditate
    00:00 +22°C° 0 mm 3 m/s 759 mmHg 85%
    01:00 +21°C° 0 mm 2 m/s 758 mmHg 87%
    02:00 +20°C° 0 mm 2 m/s 758 mmHg 89%
    03:00 +20°C° 0 mm 2 m/s 758 mmHg 90%
    04:00 +21°C° 0 mm 1 m/s 758 mmHg 88%
    05:00 +22°C° 0 mm 1 m/s 758 mmHg 85%
    06:00 +23°C° 0 mm 1 m/s 758 mmHg 83%
    07:00 +25°C° 0 mm 1 m/s 758 mmHg 78%
    08:00 +27°C° 0 mm 1 m/s 758 mmHg 72%
    09:00 +29°C° 0 mm 1 m/s 758 mmHg 67%
    10:00 +30°C° 0 mm 2 m/s 758 mmHg 64%
    11:00 +32°C° 0 mm 2 m/s 758 mmHg 61%
    12:00 +34°C° 0 mm 2 m/s 758 mmHg 58%
    13:00 +34°C° 0 mm 3 m/s 758 mmHg 58%
    14:00 +35°C° 0 mm 4 m/s 758 mmHg 59%
    15:00 +35°C° 0 mm 4 m/s 758 mmHg 59%
    16:00 +34°C° 0 mm 4 m/s 758 mmHg 62%
    17:00 +33°C° 0 mm 4 m/s 758 mmHg 66%
    18:00 +32°C° 0 mm 4 m/s 758 mmHg 69%
    19:00 +28°C° 0 mm 4 m/s 758 mmHg 73%
    20:00 +26°C° 0 mm 4 m/s 759 mmHg 77%
    21:00 +22°C° 0 mm 4 m/s 759 mmHg 81%
    22:00 +21°C° 0 mm 4 m/s 759 mmHg 77%
    23:00 +20°C° 0 mm 3 m/s 760 mmHg 74%

    30 Iunie, Duminică

    Timp Temperatura Precipitaţii Vânt Presiune Umiditate
    00:00 +19°C° 0 mm 3 m/s 760 mmHg 70%
    01:00 +18°C° 0 mm 3 m/s 760 mmHg 71%
    02:00 +17°C° 0 mm 3 m/s 760 mmHg 72%
    03:00 +16°C° 0 mm 3 m/s 760 mmHg 73%
    04:00 +17°C° 0 mm 3 m/s 760 mmHg 74%
    05:00 +17°C° 0 mm 2 m/s 761 mmHg 75%
    06:00 +17°C° 0 mm 2 m/s 761 mmHg 76%
    07:00 +19°C° 0 mm 2 m/s 761 mmHg 69%
    08:00 +21°C° 0 mm 2 m/s 762 mmHg 62%
    09:00 +23°C° 0 mm 2 m/s 762 mmHg 55%
    10:00 +25°C° 0 mm 2 m/s 762 mmHg 51%
    11:00 +26°C° 0 mm 2 m/s 761 mmHg 47%
    12:00 +27°C° 0 mm 2 m/s 761 mmHg 43%
    13:00 +28°C° 0 mm 2 m/s 761 mmHg 43%
    14:00 +28°C° 0 mm 2 m/s 761 mmHg 43%
    15:00 +29°C° 0 mm 2 m/s 761 mmHg 43%
    16:00 +28°C° 0 mm 2 m/s 761 mmHg 47%
    17:00 +28°C° 0 mm 2 m/s 760 mmHg 52%
    18:00 +28°C° 0 mm 2 m/s 760 mmHg 57%
    19:00 +26°C° 0 mm 2 m/s 761 mmHg 62%
    20:00 +24°C° 0 mm 3 m/s 761 mmHg 67%
    21:00 +20°C° 0 mm 3 m/s 761 mmHg 73%
    22:00 +20°C° 0 mm 3 m/s 761 mmHg 78%
    23:00 +19°C° 0 mm 3 m/s 761 mmHg 82%
    Arată mai mult